OBJECT C, 65940

Orbit data source: Space-Track

You're viewing an Uncataloged Satellite

Recently launched and/or uncataloged satellites may have evolving metadata. Metadata may include but not limited to: Owner, Maufacturer, Bus, Motor, and Mission.

OBJECT C, 65940 is a satellite owned by Shikong Daoyu (CN) in SSO that was launched on Sat, 11 Oct 2025 UTC via a YINLI-1 launch vehicle from the Yellow Sea Launch Area, China (YSLA). Unknown objects in Earth's orbit typically refer to objects detected orbiting the Earth but have not yet been identified or cataloged. These objects could be anything from previously untracked satellites, spent rocket stages, debris from satellite collisions, or even natural meteoroids temporarily captured by Earth's gravity.

Loading next visibility...
Identifier
65940, 2025-226C
Orbit
SSO
Country
Flag of CNCN / PRC
Related business
Flag of CNShikong Daoyi Keji YG (CN)
Manufacturer
GWCG
Mission
Operational spacecraft
Bus & Motor
GSP50, Unknown motor
Mass
~50 kg wet, ~50 kg dry
Launch date (UTC)
2025-10-11 (2 months ago)
Launch vehicle
YINLI-1
Launch site
Yellow Sea Launch Area, China (YSLA)
Object type
Unknown
Shape & HBR
Unknown shape, 1.1 m
Radar Cross Section
RCS unknown

Expand to show TLE details & history
Last TLE update: 9 hours ago

TLE from 9 hours ago
0 OBJECT C
1 65940U 25226C   25340.92535102  .00013222  00000-0  75632-3 0  9998
2 65940  97.6544  55.1805 0016092  88.7450 271.5624 15.12681928  8586
Epoch: 2025-12-06T22:12Z
TLE epoch observation values (Epoch: 2025-12-06T22:12:30.328Z)
Latitude
0.00001°
Longitude
6.10804°
Altitude
530.813 km
Speed
7.598 km/s
True Right ascension
03h 40m 43s
True Declination
0° 00' 00"
Sunlit
Object was in full shadow at epoch
Visualization orbit readout
Latitude
Unknown
Longitude
Unknown
Altitude
Unknown
Speed
Unknown
Apparent Right ascension
Unknown
Apparent Declination
Unknown
Sunlit
N/A
Visualization observer readout
Local Sidereal Time
05:39:37
Azimuth
Unknown
Elevation
Unknown
Doppler factor
Unknown
Orbital elements
Apogee altitude
536.12 km
Perigee altitude
513.903 km
Semi-major axis
6,903.148 km
Eccentricity
0.00161
Inclination
97.6544°
RAAN
55.1805°
Arg. of periapsis
88.745°
True anomaly
271.37806°
Mean anomaly
271.5624°
Eccentric anomaly
271.47023°
Mean motion
3.78418 °/min
Orbital period
95.13 mins
BSTAR
0.00075632
Loading maneuver chart data...
Computing Atmospheric mass density...
Loading historical data...
Loading historical data...
Loading historical data...
Loading historical data...
Loading historical data...
Loading historical data...
Loading historical data...
Other satellites on launch #226 in the year 2025 (2025-10-11 UTC)

Documentation

Showing up to 5 results
|